User: anonymous   Login
Location: *
(58.4167°N, 22.5000°E)
Time: 06:37:42
(UTC+00:00)
Language:

ASTEX 1 - Orbit

View from above orbital plane
View from above orbital plane
View from above satellite
View from above satellite

Ground track
Ground track

The orbit data is extracted from the following two-line orbital elements,

1  5560U 71089A   19317.53574470  .00000086  00000-0  23392-4 0  9994
2  5560  92.7102 127.0761 0014235 303.8259  56.1590 14.48039712528378
Epoch (UTC): 13 November 2019 12:51:28
Eccentricity: 0.0014235
inclination: 92.7102°
perigee height: 722 km
apogee height: 742 km
right ascension of ascending node: 127.0761°
argument of perigee: 303.8259°
revolutions per day: 14.48039712
mean anomaly at epoch: 56.1590°
orbit number at epoch: 52837

The dashed part of the orbit path shows where the satellite is in the earth's shadow,  

DLR